Flag for Kazakhstan Weather past 2 weeks in Almaty, Kazakhstan

Now
43 °F

Broken clouds.


Feels Like: 39 °F
Forecast: 27 / 47 °F
Wind: 6 mph from Northwest

Location: Almaty Airport

Current Time: Mar 2, 2015 at 5:18:17 PM

Latest Report: Mar 2, 2015 at 5:00 PM


Visibility: N/A

Pressure: 29.92 "Hg

Humidity: 46%

Dew point: 23 °F

Location of AlmatyLocation

Historic Weather in Almaty — Graph

°F

Almaty temperature yesterday

Maximum temperature yesterday: 45 °F (at 3:30 PM)
Minimum temperature yesterday: 21 °F (at 5:00 AM)
Average temperature yesterday: 31 °F

Past Weeks' High & Low Weather Summary

 TemperatureHumidityPressure
High48 °F (Feb 16, 1:00 PM)93% (Feb 16, 10:00 PM)30.48 "Hg (Feb 16, 10:00 PM)
Low21 °F (Feb 27, 6:30 AM)33% (Feb 28, 4:00 PM)29.89 "Hg (Feb 15, 5:30 PM)
Average34 °F74%30.17 "Hg
* Reported Feb 15 4:00 PM — Mar 2 4:00 PM, Almaty, Weather by CustomWeather, © 2015

Note: Actual official high and low records may vary slightly from our data, if they occured in-between our weather recording intervals... More about our weather records

Advertising

Almaty weather history for previous 24 hours

 ConditionsComfort  
Time TempWeatherWind HumidityBarometerVisibility
4:00 PM
Mon, Mar 2
43 °FBroken clouds.8 mph42%29.92 "HgN/A
3:30 PM43 °FBroken clouds.6 mph42%29.89 "HgN/A
3:00 PM43 °FBroken clouds.6 mph46%29.89 "HgN/A
2:30 PM41 °FBroken clouds.3 mph49%29.92 "HgN/A
2:00 PM41 °FBroken clouds.6 mph49%29.92 "HgN/A
1:30 PM39 °FBroken clouds.6 mph52%29.92 "HgN/A
1:00 PM39 °FBroken clouds.6 mph52%29.95 "HgN/A
12:30 PM37 °FBroken clouds.6 mph56%29.95 "HgN/A
12:00 PM36 °FPartly sunny.3 mph60%29.95 "HgN/A
11:30 AM36 °FPartly sunny.3 mph60%29.95 "HgN/A
11:00 AM34 °FPartly sunny.3 mph65%29.98 "HgN/A
10:30 AM32 °FPartly sunny.6 mph69%29.98 "HgN/A
10:00 AM30 °FPartly sunny.6 mph75%29.98 "HgN/A
9:30 AM28 °FIce fog.6 mph80%29.98 "Hg3 mi
9:00 AM27 °FIce fog.6 mph86%29.98 "Hg3 mi
8:30 AM27 °FIce fog.6 mph80%29.98 "Hg3 mi
8:00 AM25 °FIce fog.6 mph86%29.98 "Hg2 mi
7:30 AM23 °FIce fog.3 mph86%29.98 "Hg1 mi
7:00 AM23 °FIce fog.3 mph86%30.01 "Hg1 mi
6:30 AM23 °FIce fog.3 mph86%30.01 "Hg2 mi
6:00 AM25 °FIce fog.6 mph80%30.01 "Hg1 mi
5:30 AM25 °FIce fog.6 mph80%30.01 "Hg1 mi
5:00 AM25 °FIce fog.3 mph86%30.01 "Hg1 mi
4:30 AM25 °FIce fog.6 mph80%30.01 "Hg1 mi
4:00 AM25 °FIce fog.6 mph86%30.04 "Hg1 mi
3:30 AM23 °FIce fog.3 mph86%30.04 "Hg1 mi
3:00 AM25 °FIce fog.3 mph86%30.04 "Hg1 mi
2:30 AM25 °FIce fog.3 mph86%30.04 "Hg1 mi
1:30 AM25 °FIce fog.1 mph80%30.07 "Hg1 mi
1:00 AM27 °FIce fog.3 mph80%30.07 "Hg1 mi
12:30 AM27 °FIce fog.1 mph80%30.09 "Hg1 mi
12:00 AM27 °FIce fog.1 mph80%30.09 "Hg1 mi
11:30 PM
Sun, Mar 1
28 °FIce fog.1 mph74%30.12 "Hg1 mi
11:00 PM28 °FIce fog.3 mph80%30.15 "Hg1 mi
10:30 PM30 °FIce fog.3 mph75%30.15 "Hg1 mi
10:00 PM30 °FIce fog.3 mph75%30.15 "Hg1 mi
9:30 PM30 °FIce fog.1 mph75%30.18 "Hg1 mi
9:00 PM30 °FPassing clouds.3 mph69%30.18 "Hg1 mi
8:30 PM32 °FPassing clouds.3 mph64%30.18 "Hg1 mi
8:00 PM34 °FPassing clouds.3 mph60%30.21 "Hg2 mi
7:30 PM34 °FPassing clouds.3 mph60%30.21 "Hg1 mi
7:00 PM34 °FPassing clouds.6 mph60%30.21 "HgN/A
6:30 PM37 °FScattered clouds.6 mph52%30.21 "HgN/A
6:00 PM39 °FScattered clouds.8 mph48%30.21 "HgN/A
5:30 PM41 °FScattered clouds.10 mph45%30.21 "HgN/A
5:00 PM43 °FScattered clouds.10 mph46%30.21 "HgN/A
Weather by CustomWeather, © 2015

See weather overviewHow to use our weather pages